SCP
0 0 0 0 0 0 0 0 0 0 0 0 0 0 0 0 0 0 0 0 0 0 0 0 0 0 0 0 0 0 0 0 0 0 0 0 0 0 0 0 0 0 0
0 0 0 0 0 0 0 0 0 0 0 0 0 0 0 0 0 0 0 0 0 0 0 0 0 0 0 0 0 0 0 0 0 0 0 0 0 0 0 0 0 0 0
0 0 0 0 0 0 0 0 0 0 0 0 0 0 0 0 0 0 0 0 0 0 0 0 0 0 0 0 0 0 0 0 0 0 0 0 0 0 0 0 0 0 0
0 0 0 0 0 0 0 0 0 0 0 0 0 0 0 0 0 0 0 0 0 0 0 0 0 0 0 0 0 0 0 0 0 0 0 0 0 0 0 0 0 0 0
0 0 0 0 0 0 0 0 0 0 0 0 0 0 0 0 0 0 0 0 0 0 0 0 0 0 0 0 0 0 0 0 0 0 0 0 0 0 0 0 0 0 0
0 0 0 0 0 0 0 0 0 0 0 0 0 0 0 0 0 0 0 0 0 0 0 0 0 0 0 0 0 0 0 0 0 0 0 0 0 0 0 0 0 0 0
0 0 0 0 0 0 0 0 0 0 0 0 0 0 0 0 0 0 0 0 0 0 0 0 0 0 0 0 0 0 0 0 0 0 0 0 0 0 0 0 0 0 0
0 0 0 0 0 0 0 0 0 0 0 0 0 0 0 0 0 0 0 0 0 0 0 0 0 0 0 0 0 0 0 0 0 0 0 0 0 0 0 0 0 0 0
0 0 1 0 0 0 0 0 0 0 0 0 0 0 0 0 0 0 0 0 0 0 0 0 0 0 0 0 0 0 0 0 0 0 0 0 0 0 0 0 0 0 0
0 1 1 0 0 0 0 0 0 0 0 0 0 0 0 0 0 0 0 0 0 0 0 0 0 0 0 0 0 0 0 0 0 0 0 0 0 0 0 0 0 0 0
1 1 1 1 0 0 0 0 0 0 0 0 0 0 0 0 0 0 0 0 0 0 0 0 0 0 0 0 0 0 0 0 0 0 0 0 0 0 0 0 0 0 0
1 1 1 1 1 0 0 0 0 0 0 0 0 0 0 0 0 0 0 0 0 0 0 0 0 0 0 0 0 0 0 0 0 0 0 0 0 0 0 0 0 0 0
1 1 1 1 1 1 0 0 0 0 0 0 0 0 0 0 0 0 0 0 0 0 0 0 0 0 0 0 0 0 0 0 0 0 0 0 0 0 0 0 0 0 0
1 1 1 1 1 1 0 0 0 0 0 0 0 0 0 0 0 0 0 0 0 0 0 0 0 0 0 0 0 0 0 0 0 0 0 0 0 0 0 0 0 0 0
0 0 0 1 1 1 0 0 0 0 0 0 0 0 0 0 0 0 0 0 0 0 0 0 0 0 0 0 0 0 0 0 0 0 0 0 0 0 0 0 0 0 0
0 0 0 0 0 0 0 0 0 0 0 0 0 0 0 0 0 0 0 0 0 0 0 0 0 0 0 0 0 0 0 0 0 0 0 0 0 0 0 0 0 0 0
0 0 0 0 0 0 0 0 0 0 0 0 0 0 0 0 0 0 0 0 0 0 0 0 0 0 0 0 0 0 0 0 0 0 0 0 0 0 0 0 0 0 0
0 0 0 0 0 0 0 0 0 0 0 0 0 0 0 0 0 0 0 0 0 0 0 0 0 0 0 0 0 0 0 0 0 0 0 0 0 0 0 0 0 0 0
0 0 0 0 0 0 0 0 0 0 0 0 0 0 0 0 0 0 0 0 0 0 0 0 0 0 0 0 0 0 0 0 0 0 0 0 0 0 0 0 0 0 0
0 0 0 0 0 0 0 0 0 0 0 0 0 0 0 0 0 0 0 0 0 0 0 0 0 0 0 0 0 0 0 0 0 0 0 0 0 0 0 0 0 0 0
0 0 0 0 0 0 0 0 0 0 0 0 0 0 0 0 0 0 0 0 0 0 0 0 0 0 0 0 0 0 0 0 0 0 0 0 0 0 0 0 0 0 0
0 0 0 0 0 0 0 0 0 0 0 0 0 0 0 0 0 0 0 0 0 0 0 0 0 0 0 0 0 0 0 0 0 0 0 0 0 0 0 0 0 0 0
0 0 0 0 0 0 0 0 0 0 0 0 0 0 0 0 0 0 0 0 0 0 0 0 0 0 0 0 0 0 0 0 0 0 0 0 0 0 0 0 0 0 0
0 0 0 0 0 0 0 0 0 0 0 0 0 0 0 0 0 0 0 0 0 0 0 0 0 0 0 0 0 0 0 0 0 0 0 0 0 0 0 0 0 0 0
0 0 0 0 0 0 0 0 0 0 0 0 0 0 0 0 0 0 0 0 0 0 0 0 0 0 0 0 0 0 0 0 0 0 0 0 0 0 0 0 0 0 0
0 0 0 0 0 0 0 0 0 0 0 0 0 0 0 0 0 0 0 0 0 0 0 0 0 0 0 0 0 0 0 0 0 0 0 0 0 0 0 0 0 0 0
Wind_Speed
4 3 2 2 2 2 2 1 1 1 2 2 2 2 3 3 3 3 3 6 8 8 10 10 8 8 7 6 4 4 4 4 5 5 5 4 4 3 2 2 1 1 1
4 4 3 3 2 2 2 2 2 1 1 1 2 2 3 3 3 3 3 4 6 8 9 10 10 9 7 6 5 4 3 4 5 5 6 6 6 6 5 5 4 3 2
5 4 4 3 3 3 2 2 1 1 1 1 2 3 2 3 3 4 4 3 3 5 7 9 9 8 6 5 4 3 3 3 4 5 6 7 7 7 8 7 6 5 4
6 5 4 4 3 3 2 2 2 1 1 1 2 2 2 3 4 4 3 3 2 2 4 5 5 4 3 3 3 3 3 3 2 4 5 6 6 7 8 8 8 8 7
7 5 4 4 4 3 2 2 2 1 1 2 2 3 2 3 3 3 3 3 2 2 1 2 2 1 1 2 3 4 4 4 4 4 4 5 5 6 7 8 9 9 9
6 5 4 4 4 3 2 2 2 1 1 1 2 2 2 2 2 2 3 2 2 2 1 1 2 3 4 4 4 4 5 5 5 5 5 5 6 6 7 7 8 8 9
6 6 4 4 4 3 3 3 2 2 1 0 0 2 2 2 2 3 3 3 4 4 4 4 3 3 3 7 7 6 6 6 6 6 6 7 6 6 7 7 8 8 8
6 5 5 4 4 3 3 3 2 2 1 1 1 1 3 3 2 3 4 4 4 4 5 6 5 5 4 3 6 8 7 7 7 7 7 7 8 7 7 7 7 6 6
5 5 6 5 4 4 4 3 3 3 2 1 1 2 1 2 2 1 3 4 4 4 4 4 6 5 5 4 3 6 8 8 8 8 8 8 8 8 8 7 6 5 5
5 5 5 5 4 3 3 3 3 2 2 2 1 1 2 2 2 2 1 2 3 4 4 4 4 5 5 4 5 8 9 9 9 9 9 9 9 9 8 6 5 3 3
3 4 4 4 4 3 3 3 3 2 2 2 2 1 1 1 3 3 3 1 1 2 3 3 3 3 4 4 3 6 9 9 9 10 11 11 11 11 9 8 6 4 3
3 3 4 4 4 3 3 3 2 3 2 2 1 1 2 2 2 2 3 2 1 1 1 2 2 2 3 3 5 8 9 9 9 10 11 12 12 12 11 10 8 6 5
3 4 4 4 3 3 3 3 3 2 2 2 1 1 1 1 1 1 2 2 1 1 1 1 1 2 2 2 3 7 8 9 10 10 11 11 11 12 11 10 9 8 7
4 5 5 5 4 4 4 3 3 2 2 2 1 1 1 0 0 1 1 1 2 1 2 2 1 1 2 2 4 7 5 10 10 10 10 10 11 11 11 9 8 8 8
5 6 6 5 5 4 4 4 3 2 2 2 1 1 1 0 0 0 0 1 2 2 3 3 1 1 1 2 4 3 4 8 9 9 9 10 10 11 11 9 9 9 9
7 7 6 5 5 4 4 4 3 3 3 2 1 2 1 0 0 1 0 1 1 2 2 2 1 1 1 2 4 4 5 9 9 9 9 9 10 10 10 10 10 10 10
7 7 6 6 5 4 3 3 3 3 4 3 2 2 1 1 1 1 1 0 0 1 2 1 1 1 2 2 2 3 4 4 4 9 9 10 10 11 11 11 11 11 11
6 6 6 6 5 4 4 4 4 3 3 3 2 2 1 1 1 1 1 1 1 1 1 2 2 1 2 2 2 3 3 4 4 8 9 10 10 10 11 12 12 12 12
6 6 6 6 5 4 4 4 4 3 3 3 3 3 2 2 1 0 1 0 1 1 0 2 2 1 1 1 2 2 3 3 4 6 8 9 10 10 11 11 11 12 12
6 5 5 5 5 4 4 4 4 4 4 3 3 2 2 2 2 1 0 0 0 0 0 2 2 2 2 2 2 2 1 2 3 4 5 6 9 10 11 11 11 11 10
6 6 5 5 4 4 4 5 4 4 4 3 2 2 1 2 2 2 1 1 1 1 1 1 2 2 1 2 2 1 1 1 2 2 2 3 3 4 5 7 8 9 9
5 5 5 5 4 3 6 8 6 4 4 4 3 2 1 1 1 1 2 1 2 2 2 2 2 2 2 2 2 2 2 1 0 1 1 2 2 2 3 3 5 7 7
5 5 5 5 4 4 7 7 8 5 4 4 4 3 1 1 2 2 3 5 4 3 1 3 3 3 3 4 4 3 2 1 1 0 1 1 2 1 2 3 6 5 6
5 4 5 5 4 4 7 7 8 5 4 3 3 3 3 2 2 3 2 2 2 3 2 1 2 2 2 3 3 3 3 3 2 1 1 1 1 1 2 3 6 5 5
4 4 4 5 5 4 7 8 8 4 3 3 3 3 4 3 5 5 4 3 1 2 3 5 5 5 5 6 6 4 3 2 1 1 1 1 0 1 1 1 3 6 5
5 5 4 4 5 5 7 9 9 4 4 3 2 3 5 6 7 7 5 4 3 1 1 3 4 5 4 3 4 3 3 3 2 1 1 1 1 1 1 1 1 2 3
Wind_Direction
175 175 174 174 182 178 182 189 212 266 293 302 296 288 290 286 279 270 274 281 280 274 273 271 265 257 256 252 253 251 245 245 248 244 242 242 243 248 255 269 284 302 354
178 177 180 185 195 196 195 196 211 238 272 282 289 282 275 275 270 269 264 276 279 277 274 272 272 269 262 262 265 260 253 256 255 252 248 245 241 241 242 245 248 254 260
181 178 180 190 199 191 188 185 204 215 254 266 277 279 271 268 269 269 268 262 270 276 273 273 274 279 277 280 286 294 297 274 263 262 258 252 248 243 240 238 238 239 240
182 176 180 195 188 173 171 175 180 204 242 259 277 283 279 278 277 274 271 269 266 271 282 282 282 289 306 314 331 348 357 356 313 284 275 266 257 250 245 241 238 235 234
182 176 184 189 173 165 169 176 166 181 224 262 276 281 285 284 288 298 297 292 282 276 278 315 345 357 8 11 24 29 33 31 19 349 315 296 281 267 260 249 241 235 231
179 175 176 175 164 157 162 164 170 179 205 250 282 292 291 298 322 341 335 335 340 353 11 35 40 42 52 55 55 52 48 39 26 6 346 319 298 286 273 261 250 242 236
174 172 170 163 159 163 169 167 161 172 207 188 330 323 324 350 27 23 17 24 28 32 43 49 56 52 46 51 50 48 42 33 16 357 342 335 320 301 285 274 262 251 241
172 173 169 165 163 159 157 159 155 152 165 126 129 347 334 340 11 37 35 40 36 37 45 47 52 54 49 39 42 43 36 26 11 357 352 345 334 317 312 292 277 263 247
171 169 167 160 161 162 167 168 164 163 180 181 161 167 208 272 309 10 45 40 39 43 40 42 47 48 47 41 27 31 31 22 12 2 355 348 341 333 318 309 287 273 256
162 158 154 153 155 156 160 164 156 159 160 194 207 200 205 202 247 303 354 51 46 44 38 41 43 44 42 39 33 33 31 26 17 9 6 4 357 348 343 342 323 290 283
144 146 147 146 147 147 145 141 142 148 161 181 188 187 209 222 219 236 266 259 58 48 40 40 44 43 37 35 29 31 32 28 20 15 17 19 12 6 3 6 9 17 13
126 128 126 128 130 130 135 138 140 148 155 166 179 182 187 206 216 225 248 241 215 128 59 41 41 41 37 31 33 34 34 29 26 22 24 27 22 16 13 12 17 23 22
148 142 126 123 120 119 119 119 121 123 129 146 166 184 210 224 212 220 243 246 209 163 149 77 38 33 45 34 30 36 38 36 34 30 27 28 25 19 16 13 19 20 19
144 140 129 125 120 118 115 113 109 107 112 121 128 141 180 212 213 219 232 236 243 202 187 179 85 43 40 34 44 46 40 42 41 39 33 31 29 23 19 16 23 27 26
134 134 128 125 122 119 119 119 115 118 116 112 121 121 130 91 43 344 281 231 231 240 221 167 153 86 51 50 52 48 41 43 45 46 41 36 33 29 27 33 37 34 31
132 133 129 128 125 120 122 121 122 128 121 113 112 113 107 85 50 13 313 275 234 229 223 131 143 126 81 76 66 55 51 47 40 48 47 44 41 38 38 40 42 44 42
138 137 138 134 131 129 128 124 127 131 126 118 114 126 121 104 88 3 340 310 269 222 213 136 110 104 95 84 52 49 53 44 26 45 50 50 48 47 47 47 49 49 48
136 134 134 131 133 134 131 133 138 136 137 141 137 129 116 98 82 33 17 359 307 277 189 171 143 126 99 98 79 62 49 44 30 38 48 49 50 51 52 52 52 51 51
127 129 132 135 137 138 135 137 140 138 136 139 142 144 141 134 118 49 28 349 309 309 191 149 140 119 105 95 82 62 55 37 33 33 43 45 50 53 54 54 53 52 52
135 138 135 135 138 136 135 135 135 133 130 127 128 134 144 160 173 178 203 299 307 330 118 130 131 126 120 103 106 100 68 40 31 19 34 42 46 49 48 51 52 51 51
139 139 134 133 135 139 149 149 145 145 142 134 124 121 139 158 187 191 193 205 178 162 151 146 147 137 142 142 153 135 122 72 46 24 15 25 27 30 26 26 39 49 52
137 137 141 143 150 161 169 168 158 152 152 153 150 133 103 78 76 83 100 136 178 179 182 170 167 175 178 165 143 135 128 130 185 17 32 22 28 35 8 355 29 46 51
143 144 149 152 162 178 181 178 173 154 158 164 164 161 155 126 90 71 61 52 39 40 169 173 177 190 178 178 156 143 147 149 160 36 45 49 20 23 359 358 21 44 51
156 160 164 166 168 190 192 187 177 149 155 170 175 176 173 172 175 151 118 80 46 25 44 99 162 172 167 158 158 152 143 115 93 53 50 126 10 353 349 349 10 40 51
167 171 168 171 176 195 200 192 167 144 158 174 182 186 186 195 216 182 150 136 92 24 63 103 113 123 134 140 137 118 125 119 138 145 44 113 50 339 337 348 2 24 31
175 169 172 181 184 194 206 199 175 155 168 179 187 203 211 209 220 197 166 166 175 187 97 80 70 66 63 88 117 130 146 139 149 199 165 120 90 35 1 344 359 1 11